Wind_Speed
21 22 24 25 26 28 30 31 32 34 37 39 41 42 42 43 45 47 49 52 54 56 58 60 62 64 66 67 68 70 71 72 73 72 72 71 68 64 60 55 50 44 41 38
22 23 26 27 28 30 30 32 34 36 39 41 44 46 48 50 53 56 58 60 63 65 67 68 70 72 74 75 75 75 75 76 76 74 73 73 72 68 63 58 52 48 44 42
22 25 27 28 28 30 32 34 36 40 44 48 50 53 56 59 63 66 68 71 73 75 76 77 79 80 82 83 84 84 83 83 82 80 77 74 71 67 64 60 56 52 48 47
22 25 26 28 30 32 35 38 42 46 50 53 57 61 64 69 73 76 78 80 80 79 78 76 75 75 76 77 80 83 86 88 89 89 86 84 82 79 75 71 66 61 57 53
23 26 31 30 34 37 40 44 47 51 56 60 64 68 72 76 79 80 78 75 70 66 62 59 56 56 56 57 60 64 68 71 74 77 78 79 79 79 77 75 71 65 60 56
27 29 32 37 39 42 46 51 55 59 64 68 72 76 78 78 76 69 61 54 49 45 43 43 43 44 45 44 44 45 47 50 52 53 54 57 60 63 65 66 65 62 58 53
29 32 35 38 42 45 50 55 59 64 69 74 78 79 76 67 56 48 42 39 39 40 41 42 43 44 43 42 40 38 38 38 38 38 38 40 42 45 49 53 55 55 54 51
32 35 40 43 47 50 55 60 65 69 74 77 76 69 58 47 41 38 39 41 43 44 45 46 47 47 46 45 44 41 39 37 34 32 31 30 30 32 35 39 44 49 51 51
35 38 42 47 51 55 59 64 68 73 76 75 66 52 42 38 39 41 43 45 47 48 48 48 48 49 48 46 46 43 41 38 36 33 30 28 27 28 29 31 35 41 47 50
38 41 44 49 53 57 62 68 73 76 73 64 51 41 38 40 43 45 46 48 49 49 49 49 49 49 49 48 47 45 43 40 37 34 30 27 25 24 23 24 25 29 37 44
41 44 48 52 57 62 67 72 75 73 63 51 42 39 41 44 47 48 49 50 50 50 49 48 48 48 48 48 47 45 42 40 38 34 30 26 24 23 21 21 20 22 27 34
44 48 52 56 60 65 71 75 73 65 51 42 41 42 45 48 49 50 50 50 50 48 47 46 46 46 47 46 44 41 39 38 36 34 31 28 25 24 23 22 21 21 23 27
47 51 55 59 63 69 74 74 67 55 44 40 42 45 48 50 51 52 52 52 51 48 46 46 46 45 45 42 39 36 35 34 33 33 32 30 28 27 26 25 23 22 23 25
50 54 57 60 65 71 74 72 61 48 42 42 45 47 49 51 53 54 53 52 51 48 46 45 44 42 41 38 35 31 29 29 30 31 32 31 29 28 27 26 24 23 24 26
51 55 58 62 67 72 74 68 55 44 42 44 46 48 50 53 55 54 53 51 49 47 44 44 42 40 37 33 28 24 21 22 25 27 29 30 29 28 26 25 24 22 24 28
51 56 59 63 68 73 73 65 52 43 43 45 47 49 51 54 55 53 51 49 47 45 42 41 39 36 31 25 20 15 12 16 21 24 27 28 28 27 26 24 24 23 25 31
52 56 59 63 68 73 72 62 50 44 45 47 49 50 52 54 52 50 49 47 45 42 40 38 34 31 25 19 12 6 8 14 19 23 26 27 27 26 24 24 24 25 30 35
53 56 60 64 69 73 71 59 47 44 46 48 50 51 52 52 51 49 49 46 44 42 38 35 30 26 21 15 7 1 9 14 20 24 26 26 26 24 24 24 26 29 34 37
52 56 59 63 68 72 69 58 46 44 46 48 50 51 51 51 49 48 47 45 44 42 38 33 28 22 18 14 10 10 13 18 22 25 27 27 25 24 25 28 30 33 37 39
52 55 58 62 67 71 69 58 47 43 45 48 49 50 49 48 46 46 46 45 44 42 37 32 27 22 17 15 16 17 20 24 27 28 27 26 26 27 30 32 34 36 38 40
51 54 57 61 65 69 67 58 47 42 44 47 48 48 46 44 43 44 44 45 44 42 37 32 28 24 21 21 23 24 26 28 29 28 29 30 31 32 33 36 37 37 39 38
49 53 56 59 63 67 66 58 47 41 42 44 45 44 43 41 40 40 41 42 42 40 38 35 32 30 29 29 29 31 32 33 34 34 34 34 35 36 37 37 37 37 37 35
48 51 54 57 61 65 65 57 46 39 40 42 42 40 39 38 37 38 38 38 39 40 39 38 37 36 36 36 37 38 38 38 37 36 36 36 36 35 35 35 34 34 33 31
47 50 53 56 59 62 63 57 44 37 36 39 39 37 34 33 32 33 33 33 34 35 36 37 37 37 37 37 37 37 37 36 36 35 35 34 33 33 32 31 30 30 28 27
46 48 51 54 56 60 62 58 45 34 32 34 34 32 30 29 28 28 28 29 29 30 31 32 33 33 33 33 33 34 33 32 31 31 30 30 30 29 28 27 26 25 24 23
45 47 50 52 54 57 60 58 48 34 29 29 29 27 26 24 23 22 22 23 24 24 25 26 26 27 27 27 27 27 27 26 26 25 25 25 25 24 24 23 22 21 21 21
44 46 48 51 52 54 57 56 49 36 28 25 25 24 23 21 19 17 17 17 18 19 20 21 21 22 22 21 20 20 19 19 19 19 20 20 21 21 20 20 20 20 19 19
Wind_Direction
319 316 315 314 314 312 310 308 306 304 303 304 303 302 300 297 295 293 291 289 287 285 283 281 280 278 276 274 272 272 271 270 270 270 270 269 269 267 266 264 264 265 267 270
321 318 316 317 316 313 312 311 309 308 307 306 305 303 302 301 298 296 293 290 288 285 282 279 277 275 272 270 268 267 267 266 265 264 265 264 262 260 258 258 259 262 264 267
326 322 319 320 319 315 314 312 311 309 308 307 306 305 304 302 299 297 295 292 289 287 284 282 279 276 273 271 269 268 267 265 265 264 263 262 259 257 256 256 258 261 261 265
327 322 321 320 317 314 312 312 310 310 309 309 308 307 306 304 302 300 297 295 293 292 290 288 286 284 281 278 276 273 271 269 268 267 266 265 263 262 261 261 262 263 264 265
329 324 319 320 318 316 315 314 313 313 313 312 311 309 308 306 303 302 301 300 299 298 297 297 297 295 294 291 287 283 279 275 272 271 269 268 266 265 264 263 262 262 261 260
327 323 320 321 320 319 318 317 318 317 316 315 313 311 309 307 306 305 305 305 306 306 306 305 304 303 303 302 298 294 288 283 278 275 273 270 267 265 262 260 257 255 253 251
325 321 320 321 320 320 319 319 318 318 317 317 315 313 312 311 311 311 313 313 313 312 309 307 305 304 303 302 301 298 295 292 285 280 276 272 266 262 258 253 249 244 240 237
327 326 325 324 322 323 322 322 321 320 320 318 317 317 317 318 319 318 316 314 311 310 308 306 303 301 299 298 295 292 290 289 287 282 279 273 269 262 255 248 240 233 227 223
329 328 325 325 325 324 324 324 323 324 324 322 322 323 323 323 321 318 316 314 312 311 309 308 304 300 298 295 292 288 285 282 281 277 274 271 268 264 256 245 236 228 221 216
330 328 327 326 325 326 327 328 328 328 327 325 326 327 326 325 323 320 318 316 314 312 310 308 305 302 298 295 291 285 281 277 274 270 267 264 261 257 248 238 230 225 220 216
331 329 330 330 330 331 332 332 332 331 329 328 330 330 328 327 325 322 320 317 315 313 312 310 307 305 301 296 292 285 278 271 266 262 256 252 248 243 236 229 223 220 217 216
333 332 334 334 335 335 335 335 335 333 331 331 331 331 329 328 327 325 323 320 318 316 315 313 310 307 304 299 294 285 276 268 260 253 245 240 236 234 231 229 226 225 220 216
334 335 336 337 337 337 337 338 337 335 335 334 333 332 332 331 330 328 326 323 320 318 316 315 314 310 307 303 296 286 275 263 253 245 237 232 229 228 229 229 228 226 223 217
335 336 338 339 339 339 340 341 340 338 337 336 335 335 334 334 333 331 329 327 324 321 318 317 316 315 311 306 299 287 272 256 244 235 229 224 222 222 224 225 224 221 216 207
335 336 338 340 341 342 343 343 342 341 339 338 338 337 336 336 335 334 333 331 328 326 323 321 318 318 316 311 304 289 268 244 230 223 217 214 214 214 216 216 216 211 204 199
336 337 339 341 342 344 345 345 344 343 341 342 341 340 339 339 339 338 337 335 332 329 328 326 323 324 324 318 310 291 252 221 211 205 202 202 204 206 207 208 207 200 194 187
336 338 340 342 344 346 347 347 345 344 344 345 345 344 343 343 344 343 342 340 338 336 335 332 332 333 335 332 321 288 217 196 190 186 187 190 194 196 197 195 192 188 181 178
337 339 341 343 345 347 349 349 346 345 346 348 348 348 348 348 349 349 348 347 346 346 344 343 343 344 349 357 5 130 167 170 171 173 176 180 181 183 184 183 179 174 170 171
338 340 342 344 345 348 350 350 348 347 348 351 352 353 353 353 354 354 354 354 354 356 356 356 359 4 15 30 62 107 135 150 157 161 164 167 168 171 172 168 164 163 165 165
338 340 343 345 346 348 351 351 350 350 351 353 355 356 357 359 1 2 3 5 4 5 7 9 15 25 40 60 82 104 123 137 144 148 152 154 156 155 153 153 154 157 159 159
338 341 343 345 347 349 351 352 351 352 353 356 357 359 1 4 7 8 11 14 15 17 20 25 34 48 66 80 93 105 116 125 131 136 139 140 140 141 144 147 149 152 154 156
338 341 343 346 347 349 352 353 352 353 355 356 358 1 5 8 12 14 16 20 24 28 34 42 51 63 77 89 98 105 112 118 122 125 128 130 132 134 137 141 145 148 153 157
338 340 343 346 347 349 352 354 353 353 354 355 359 4 9 12 16 20 24 28 34 39 46 54 63 72 80 88 95 102 107 111 115 118 121 124 128 132 137 141 145 149 152 156
337 340 343 346 348 349 353 356 354 353 354 355 358 4 11 17 21 24 28 33 39 44 52 60 67 74 81 87 92 98 104 109 113 117 121 124 129 134 138 142 147 151 155 159
337 339 342 345 347 349 352 355 355 352 353 354 358 4 11 18 24 29 32 36 42 47 53 61 67 74 80 86 91 96 100 105 110 116 122 127 132 137 140 144 147 151 156 160
336 339 341 344 346 349 352 355 355 353 351 352 357 4 11 18 25 31 35 37 40 45 51 59 67 73 79 85 91 96 101 106 111 117 124 130 135 140 144 148 151 154 156 158
334 337 340 342 345 348 350 354 355 352 349 349 355 1 9 16 23 30 35 38 39 43 48 54 60 68 76 83 89 96 103 111 120 127 134 139 144 148 151 154 156 157 158 159
Height
5845 5842 5838 5834 5831 5827 5823 5819 5815 5809 5803 5796 5790 5785 5779 5773 5767 5761 5755 5749 5743 5737 5732 5727 5722 5717 5712 5708 5705 5702 5699 5697 5695 5694 5694 5694 5696 5698 5700 5702 5704 5705 5706 5707
5841 5836 5832 5829 5825 5820 5816 5811 5806 5800 5794 5788 5780 5773 5766 5759 5752 5745 5738 5731 5724 5718 5712 5706 5700 5695 5690 5685 5682 5679 5677 5675 5673 5671 5672 5672 5674 5677 5680 5683 5686 5689 5691 5693
5837 5831 5827 5823 5819 5813 5809 5803 5798 5791 5785 5776 5768 5760 5752 5743 5735 5726 5718 5709 5701 5693 5686 5679 5673 5668 5663 5660 5656 5653 5650 5649 5648 5647 5648 5651 5652 5654 5658 5662 5666 5671 5675 5678
5832 5828 5823 5821 5813 5808 5802 5796 5788 5781 5772 5763 5754 5745 5735 5724 5713 5703 5692 5682 5673 5664 5657 5650 5643 5637 5632 5629 5625 5622 5621 5619 5619 5619 5621 5624 5627 5630 5635 5640 5645 5651 5657 5662
5828 5822 5816 5813 5806 5798 5791 5785 5776 5767 5758 5748 5738 5728 5717 5702 5689 5676 5665 5655 5646 5638 5630 5624 5618 5612 5607 5603 5597 5594 5592 5590 5590 5590 5592 5595 5598 5603 5608 5615 5622 5629 5636 5643
5821 5816 5811 5805 5797 5788 5781 5771 5762 5752 5742 5731 5719 5707 5698 5681 5666 5653 5643 5634 5627 5620 5614 5608 5602 5595 5590 5585 5579 5575 5571 5569 5568 5568 5568 5570 5572 5576 5581 5588 5597 5606 5615 5624
5816 5810 5803 5797 5789 5781 5773 5764 5752 5740 5727 5714 5700 5685 5671 5658 5647 5636 5629 5622 5615 5609 5602 5596 5589 5583 5578 5572 5567 5562 5558 5555 5553 5552 5552 5552 5552 5554 5558 5563 5571 5581 5592 5603
5810 5804 5797 5787 5778 5770 5761 5749 5737 5724 5710 5695 5680 5665 5651 5640 5632 5625 5619 5612 5605 5598 5591 5583 5576 5569 5564 5559 5554 5549 5546 5543 5541 5540 5540 5539 5539 5540 5541 5544 5550 5560 5571 5583
5804 5798 5788 5778 5768 5759 5748 5737 5723 5708 5692 5675 5660 5649 5640 5632 5624 5617 5608 5600 5592 5584 5576 5569 5560 5553 5547 5543 5538 5534 5531 5530 5529 5529 5529 5529 5529 5529 5529 5532 5536 5543 5554 5565
5796 5788 5780 5771 5760 5749 5736 5722 5706 5689 5672 5657 5647 5638 5631 5623 5615 5606 5597 5588 5578 5569 5561 5553 5545 5537 5530 5525 5520 5517 5515 5515 5515 5516 5518 5519 5520 5520 5522 5524 5528 5533 5541 5551
5788 5780 5771 5761 5749 5736 5723 5708 5692 5674 5658 5645 5637 5630 5622 5613 5604 5595 5585 5574 5564 5554 5546 5537 5529 5521 5513 5507 5502 5498 5497 5497 5499 5503 5506 5510 5512 5514 5517 5520 5524 5528 5535 5542
5781 5771 5761 5751 5738 5725 5711 5695 5678 5662 5649 5638 5629 5621 5612 5603 5593 5582 5571 5561 5550 5540 5530 5522 5513 5505 5497 5489 5483 5480 5479 5480 5483 5488 5494 5500 5504 5508 5511 5515 5519 5524 5529 5536
5772 5763 5752 5741 5728 5714 5699 5682 5666 5651 5640 5632 5624 5614 5603 5593 5582 5571 5559 5547 5536 5526 5516 5507 5498 5489 5480 5472 5466 5463 5462 5464 5469 5475 5482 5489 5495 5501 5505 5510 5514 5519 5524 5531
5764 5754 5745 5733 5720 5705 5689 5672 5656 5643 5634 5625 5616 5606 5595 5584 5572 5560 5547 5535 5523 5513 5503 5493 5483 5474 5465 5457 5451 5448 5447 5450 5455 5462 5470 5479 5487 5493 5499 5504 5509 5514 5520 5527
5759 5748 5737 5725 5711 5696 5680 5663 5649 5638 5629 5620 5610 5599 5587 5575 5563 5550 5537 5524 5512 5501 5490 5480 5471 5462 5452 5444 5439 5435 5435 5438 5444 5452 5461 5471 5479 5486 5493 5499 5504 5510 5516 5523
5753 5742 5729 5717 5704 5688 5672 5656 5643 5633 5624 5615 5604 5593 5580 5567 5554 5541 5528 5515 5502 5490 5480 5469 5460 5451 5442 5434 5429 5427 5428 5431 5438 5446 5455 5465 5473 5481 5488 5494 5500 5506 5513 5521
5747 5735 5723 5710 5697 5682 5665 5650 5637 5628 5619 5610 5599 5587 5575 5562 5548 5535 5522 5508 5495 5483 5471 5461 5452 5443 5435 5429 5425 5423 5425 5429 5435 5443 5453 5462 5470 5478 5485 5492 5498 5505 5512 5521
5739 5728 5716 5703 5690 5676 5661 5646 5634 5625 5615 5605 5595 5583 5570 5557 5544 5531 5518 5504 5492 5479 5467 5456 5447 5439 5432 5426 5423 5423 5425 5430 5436 5445 5453 5462 5470 5478 5484 5491 5498 5505 5514 5523
5734 5723 5711 5698 5685 5671 5656 5642 5631 5622 5612 5602 5591 5580 5567 5555 5542 5529 5516 5503 5490 5477 5466 5455 5446 5438 5432 5429 5426 5427 5429 5434 5441 5449 5457 5465 5473 5479 5486 5493 5500 5509 5518 5528
5728 5718 5707 5694 5681 5667 5653 5639 5628 5619 5610 5601 5590 5579 5567 5556 5543 5531 5519 5506 5492 5479 5468 5458 5449 5443 5438 5436 5434 5435 5438 5443 5449 5456 5464 5471 5478 5484 5491 5498 5506 5515 5524 5534
5723 5713 5702 5691 5678 5664 5650 5637 5626 5617 5608 5600 5590 5580 5569 5558 5547 5536 5525 5513 5501 5488 5476 5466 5458 5452 5448 5446 5446 5447 5450 5455 5460 5467 5473 5479 5485 5492 5499 5507 5515 5523 5533 5541
5719 5709 5699 5688 5675 5662 5648 5635 5624 5616 5608 5600 5592 5582 5572 5563 5553 5543 5533 5522 5511 5500 5489 5480 5472 5466 5462 5461 5461 5462 5465 5469 5474 5479 5485 5491 5497 5503 5511 5518 5526 5534 5542 5549
5714 5704 5695 5684 5673 5660 5647 5634 5623 5615 5608 5601 5593 5584 5575 5566 5558 5550 5542 5533 5524 5514 5505 5497 5491 5486 5482 5480 5479 5480 5482 5485 5490 5494 5499 5505 5510 5516 5523 5529 5536 5543 5550 5556
5709 5700 5691 5681 5670 5658 5646 5634 5623 5615 5609 5602 5595 5587 5580 5573 5566 5558 5551 5544 5537 5530 5523 5516 5511 5506 5503 5501 5500 5499 5501 5503 5506 5510 5514 5519 5524 5529 5535 5540 5546 5551 5557 5562
5705 5696 5687 5678 5668 5657 5645 5634 5624 5616 5611 5605 5598 5591 5584 5577 5571 5565 5560 5555 5549 5544 5538 5533 5528 5524 5522 5520 5519 5518 5519 5520 5522 5525 5528 5532 5536 5540 5544 5549 5554 5558 5563 5567
5700 5692 5683 5674 5665 5655 5644 5633 5623 5616 5611 5606 5600 5594 5587 5581 5576 5572 5567 5563 5559 5554 5550 5546 5542 5539 5537 5535 5534 5534 5534 5535 5536 5538 5540 5543 5546 5549 5553 5556 5560 5564 5568 5572
5694 5687 5679 5671 5662 5652 5642 5632 5623 5615 5609 5605 5600 5595 5589 5584 5580 5576 5572 5569 5566 5562 5559 5556 5552 5550 5548 5546 5545 5545 5545 5545 5546 5547 5549 5551 5553 5556 5559 5562 5565 5568 5572 5575